Location: Unspecified
(49.2170°N, 0.0000°E)
Time: 14:40:52
(UTC+00:00)

SR - Pass Details

Date: 21 January 2021
Orbit: 573 x 882 km, 66.7° (Epoch: 05 March)

Event Time Altitude Azimuth Distance (km) Brightness Sun altitude
Exits shadow 06:13:22 - 232° (SW) 2,236 ? -14.6°
Reaches altitude 10° 06:13:41 10° 233° (SW) 2,118 ? -14.5°
Maximum altitude 06:18:26 56° 312° (NW) 862 ? -13.8°
Drops below altitude 10° 06:23:41 10° 31° (NNE) 2,335 ? -12.9°
Sets 06:26:16 0° 35° (NE) 3,316 ? -12.5°
